Weather History for Great Falls, MT

Change the Weather History Date:

Wednesday, November 6, 2013

  Actual Average Record
Temperature  
Mean Temperature 38 °F 37 °F  
Max Temperature 49 °F 48 °F 72 °F (2010)
Min Temperature 27 °F 27 °F -13 °F (1971)
Degree Days  
Heating Degree Days 27 28  
Month to date heating degree days 179 160  
Since 1 July heating degree days 1050 1180  
Cooling Degree Days 0 0  
Month to date cooling degree days 0 0  
Year to date cooling degree days 449 298  
Moisture  
Dew Point 22 °F    
Average Humidity 58    
Maximum Humidity 85    
Minimum Humidity 31    
Precipitation  
Precipitation T in 0.02 in 0.30 in (1966)
Month to date precipitation 0.01 0.12  
Year to date precipitation 10.67 13.73  
Snow  
Snow T in 0.30 in 3.00 in (1966)
Month to date snowfall 0.6 1.3  
Since 1 July snowfall 7.5 6.9  
Since 1 September snowfall 7.5 6.6  
Snow Depth 0.00 in    
Sea Level Pressure  
Sea Level Pressure 30.23 in    
Wind  
Wind Speed 10 mph (WSW)    
Max Wind Speed 25 mph    
Max Gust Speed 30 mph    
Visibility 10 miles    
Events      
T = Trace of Precipitation, MM = Missing Value Source: NWS Daily Summary

Daily Weather History Graph

Daily Weather History Graph

Search for Another Location

Airport:

Trip Planner

Search our weather history database for the weather conditions in past years. The results will help you decide how hot, cold, wet, or windy it might be!

Date:

Astronomy

Nov. 06, 2013 Rise Set
Actual Time 7:17 AM MST 5:00 PM MST
Civil Twilight 6:44 AM MST 5:33 PM MST
Nautical Twilight 6:07 AM MST 6:09 PM MST
Astronomical Twilight 5:32 AM MST 6:45 PM MST
Moon 10:41 AM MST (11/6) 8:03 PM MST (11/6)
Length of Visible Light 10h 48m
Length of Day
9h 43m
Waxing Crescent, 14% of the Moon is Illuminated
Nov 6
Waxing Crescent
Nov 9
First Quarter
Nov 17
Full
Nov 25
Last Quarter
Dec 2
New

Hourly Weather History & Observations

Time (MST) Temp. Windchill Dew Point Humidity Pressure Visibility Wind Dir Wind Speed Gust Speed Precip Events Conditions
12:53 AM 37.9 °F 27.9 °F 25.0 °F 60% 29.98 in 10.0 mi SW 19.6 mph 25.3 mph N/A   Overcast
1:53 AM 37.0 °F 31.0 °F 28.0 °F 70% 30.09 in 10.0 mi WNW 8.1 mph 17.3 mph 0.00 in   Overcast
2:04 AM 37.4 °F 32.8 °F 26.6 °F 65% 30.01 in 10.0 mi West 5.8 mph - N/A   Overcast
2:53 AM 33.1 °F 30.0 °F 27.0 °F 78% 30.11 in 10.0 mi NNW 3.5 mph - N/A   Overcast
3:53 AM 32.0 °F - 27.0 °F 82% 30.11 in 10.0 mi Calm Calm - N/A   Overcast
4:53 AM 28.9 °F 20.4 °F 25.0 °F 85% 30.12 in 10.0 mi SW 9.2 mph - N/A   Scattered Clouds
5:53 AM 30.9 °F 22.8 °F 26.1 °F 82% 30.14 in 10.0 mi SW 9.2 mph - N/A   Clear
6:53 AM 30.9 °F 22.2 °F 24.1 °F 76% 30.16 in 10.0 mi WSW 10.4 mph - N/A   Mostly Cloudy
7:53 AM 34.0 °F 28.0 °F 25.0 °F 70% 30.19 in 10.0 mi West 6.9 mph - N/A   Mostly Cloudy
8:53 AM 34.0 °F - 26.1 °F 73% 30.22 in 10.0 mi Calm Calm - N/A   Overcast
9:53 AM 41.0 °F 37.1 °F 26.1 °F 55% 30.22 in 10.0 mi WSW 5.8 mph - N/A   Overcast
10:53 AM 39.9 °F - 24.1 °F 53% 30.23 in 10.0 mi Calm Calm - N/A   Scattered Clouds
11:53 AM 46.0 °F 39.3 °F 19.9 °F 35% 30.21 in 10.0 mi West 16.1 mph 26.5 mph N/A   Mostly Cloudy
12:53 PM 48.0 °F - 19.9 °F 33% 30.22 in 10.0 mi West 17.3 mph 28.8 mph N/A   Overcast
1:53 PM 45.0 °F 38.9 °F 19.0 °F 36% 30.24 in 10.0 mi WNW 12.7 mph 27.6 mph N/A   Overcast
2:53 PM 43.0 °F 35.7 °F 18.0 °F 37% 30.27 in 10.0 mi West 15.0 mph 20.7 mph N/A   Mostly Cloudy
3:53 PM 44.1 °F 36.8 °F 19.0 °F 37% 30.27 in 10.0 mi West 16.1 mph - N/A   Scattered Clouds
4:53 PM 35.1 °F 27.9 °F 18.0 °F 50% 30.33 in 10.0 mi West 9.2 mph - N/A   Clear
5:53 PM 28.9 °F 21.1 °F 17.1 °F 61% 30.37 in 10.0 mi West 8.1 mph - N/A   Clear
6:53 PM 28.0 °F 18.6 °F 19.0 °F 69% 30.38 in 10.0 mi WSW 10.4 mph - N/A   Clear
7:53 PM 30.9 °F 22.8 °F 18.0 °F 59% 30.37 in 10.0 mi WSW 9.2 mph - N/A   Clear
8:53 PM 26.1 °F 17.6 °F 18.0 °F 71% 30.39 in 10.0 mi SSW 8.1 mph - N/A   Clear
9:53 PM 26.1 °F 18.4 °F 18.0 °F 71% 30.38 in 10.0 mi SSW 6.9 mph - N/A   Clear
10:53 PM 24.1 °F 15.2 °F 18.0 °F 77% 30.39 in 10.0 mi SW 8.1 mph - N/A   Clear
11:53 PM 24.1 °F 16.0 °F 19.0 °F 81% 30.36 in 10.0 mi SSW 6.9 mph - N/A   Clear